User: anonymous   Login
Location: Unspecified
(49.8670°N, 0.0000°E)
Time: 18:05:23
(UTC+00:00)
Language:

Courier 1B - Orbit

View from above orbital plane
View from above orbital plane
View from above satellite
View from above satellite

Ground track
Ground track

The orbit data is extracted from the following two-line orbital elements,

1    58U 60013A   19167.16068561  .00000089  00000-0  16743-5 0  9993
2    58  28.3267 157.9927 0164916 268.4165  89.7483 13.46317793889617
Epoch (UTC): 16 June 2019 03:51:23
Eccentricity: 0.0164916
inclination: 28.3267°
perigee height: 963 km
apogee height: 1209 km
right ascension of ascending node: 157.9927°
argument of perigee: 268.4165°
revolutions per day: 13.46317793
mean anomaly at epoch: 89.7483°
orbit number at epoch: 88961

The dashed part of the orbit path shows where the satellite is in the earth's shadow,  

DLR